User: anonymous   Login
Location: Lombard
(41.8800°N, 88.0080°W)
Time: 06:32:39
(UTC-05:00)
Language:

Tiros 1 - Orbit

View from above orbital plane
View from above orbital plane
View from above satellite
View from above satellite

Ground track
Ground track

The orbit data is extracted from the following two-line orbital elements,

1 00029U 60002B   23151.67027659  .00000629  00000-0  12186-3 0  9991
2 00029  48.3790 258.2404 0023605 169.1288 191.0139 14.75328372377665
Epoch (UTC): 31 May 2023 16:05:11
Eccentricity: 0.0023605
inclination: 48.3790°
perigee height: 627 km
apogee height: 660 km
right ascension of ascending node: 258.2404°
argument of perigee: 169.1288°
revolutions per day: 14.75328372
mean anomaly at epoch: 191.0139°
orbit number at epoch: 37766

The dashed part of the orbit path shows where the satellite is in the earth's shadow,  

DLR